FW0069 Weather Reports


Display with metric or nautical units.
time (UTC)temp
F
wind
direction
speed
MPH
gust
MPH
rain 1hr
in
rain 24hr
in
rain mn
in
humidity
%
barometer
mb
20260906042104 86 251 5.0 6.0 0.00 0.00 0.00 20 1014.2
20260906041534 86 254 3.0 6.0 0.00 0.00 0.00 20 1014.2
20260906040604 87 188 2.0 3.0 0.00 0.00 0.00 19 1014.2
20260906040103 87 187 0.0 3.0 0.00 0.00 0.00 19 1014.2
20260906035603 87 186 1.0 4.0 0.00 0.00 0.00 19 1013.8
20260906035103 87 186 1.0 4.0 0.00 0.00 0.00 19 1013.7
20260906034603 87 360 3.0 3.0 0.00 0.00 0.00 19 1013.5
20260906033604 88 360 3.0 4.0 0.00 0.00 0.00 19 1013.7
20260906033103 88 360 2.0 4.0 0.00 0.00 0.00 18 1013.7
20260906032603 88 360 2.0 5.0 0.00 0.00 0.00 18 1013.6
20260906031603 88 360 5.0 5.0 0.00 0.00 0.00 18 1013.5
20260906031104 89 360 1.0 7.0 0.00 0.00 0.00 18 1013.4
20260906030603 89 360 5.0 9.0 0.00 0.00 0.00 18 1013.3
20260906025603 89 360 4.0 8.0 0.00 0.00 0.00 17 1013.1
20260906025104 89 360 4.0 8.0 0.00 0.00 0.00 17 1013.1
20260906023604 90 360 2.0 10.0 0.00 0.00 0.00 17 1012.9
20260906023104 90 360 9.0 10.0 0.00 0.00 0.00 17 1012.7
20260906022604 90 360 2.0 9.0 0.00 0.00 0.00 17 1012.9
20260906022103 90 360 3.0 13.0 0.00 0.00 0.00 17 1012.9
20260906021603 90 360 9.0 13.0 0.00 0.00 0.00 16 1012.7
20260906021103 91 360 4.0 11.0 0.00 0.00 0.00 16 1012.9
20260906020604 91 360 4.0 10.0 0.00 0.00 0.00 16 1012.9
20260906015603 91 360 8.0 11.0 0.00 0.00 0.00 16 1012.7
20260906015104 91 360 2.0 13.0 0.00 0.00 0.00 16 1012.7
20260906014603 92 360 4.0 13.0 0.00 0.00 0.00 16 1012.8
20260906014103 92 360 8.0 15.0 0.00 0.00 0.00 16 1012.6
20260906013603 92 360 4.0 15.0 0.00 0.00 0.00 15 1012.7
20260906013103 92 190 6.0 13.0 0.00 0.00 0.00 15 1012.7
20260906012603 92 196 7.0 14.0 0.00 0.00 0.00 15 1012.7
20260906012104 92 159 3.0 14.0 0.00 0.00 0.00 15 1012.7
20260906011603 93 183 8.0 14.0 0.00 0.00 0.00 15 1012.8
20260906011103 93 213 4.0 16.0 0.00 0.00 0.00 14 1012.7
20260906010534 93 185 14.0 16.0 0.00 0.00 0.00 14 1012.7
20260906010104 93 183 13.0 16.0 0.00 0.00 0.00 13 1012.7
20260906004604 94 133 7.0 13.0 0.00 0.00 0.00 13 1012.4
20260906004103 94 163 5.0 22.0 0.00 0.00 0.00 12 1012.4
20260906003603 94 181 6.0 22.0 0.00 0.00 0.00 12 1012.5
20260906003104 95 170 11.0 17.0 0.00 0.00 0.00 12 1012.6
20260906002603 95 155 5.0 18.0 0.00 0.00 0.00 12 1012.4
20260906001603 95 186 7.0 12.0 0.00 0.00 0.00 12 1012.4
20260906001103 95 159 6.0 17.0 0.00 0.00 0.00 11 1012.6
20260906000604 95 182 7.0 17.0 0.00 0.00 0.00 11 1012.7
20260905235103 95 194 5.0 19.0 0.00 0.00 0.00 10 1012.7
20260905234603 95 193 13.0 19.0 0.00 0.00 0.00 10 1012.8
20260905234103 96 186 9.0 16.0 0.00 0.00 0.00 10 1012.8
20260905232533 96 131 5.0 21.0 0.00 0.00 0.00 9 1012.7
20260905232103 96 190 8.0 21.0 0.00 0.00 0.00 9 1012.7
20260905231603 95 163 11.0 21.0 0.00 0.00 0.00 9 1012.8
20260905224533 96 159 3.0 18.0 0.00 0.00 0.00 9 1013.1
20260905224103 96 174 8.0 17.0 0.00 0.00 0.00 9 1013.1
20260905223033 96 188 11.0 22.0 0.00 0.00 0.00 9 1013.5
20260905222533 96 170 8.0 20.0 0.00 0.00 0.00 8 1013.3
20260905221603 96 182 13.0 20.0 0.00 0.00 0.00 7 1013.6
20260905220533 97 195 11.0 17.0 0.00 0.00 0.00 6 1013.6
20260905220103 97 167 13.0 18.0 0.00 0.00 0.00 6 1013.7
20260905215603 97 175 6.0 18.0 0.00 0.00 0.00 6 1013.8
20260905214103 97 199 7.0 15.0 0.00 0.00 0.00 6 1013.9
20260905213603 97 172 7.0 15.0 0.00 0.00 0.00 6 1014.0
20260905212603 97 196 4.0 16.0 0.00 0.00 0.00 6 1014.0
20260905212033 97 229 9.0 12.0 0.00 0.00 0.00 6 1014.1
20260905211603 97 217 11.0 14.0 0.00 0.00 0.00 6 1014.1
20260905211033 97 178 7.0 14.0 0.00 0.00 0.00 6 1014.1
20260905210603 97 173 7.0 18.0 0.00 0.00 0.00 6 1014.1
20260905205103 96 213 3.0 16.0 0.00 0.00 0.00 8 1014.3
20260905204533 96 178 8.0 17.0 0.00 0.00 0.00 7 1014.4
20260905203603 96 222 15.0 19.0 0.00 0.00 0.00 6 1014.5
20260905203033 96 184 19.0 19.0 0.00 0.00 0.00 6 1014.5
20260905202533 96 206 7.0 17.0 0.00 0.00 0.00 6 1014.6
20260905202103 96 164 13.0 20.0 0.00 0.00 0.00 6 1014.6
20260905201603 95 115 9.0 20.0 0.00 0.00 0.00 6 1014.2
20260905201103 95 186 4.0 17.0 0.00 0.00 0.00 7 1014.5
20260905200603 95 160 8.0 15.0 0.00 0.00 0.00 7 1014.6
20260905195533 95 169 7.0 14.0 0.00 0.00 0.00 7 1014.7
20260905194533 95 175 6.0 10.0 0.00 0.00 0.00 9 1014.8
20260905194033 94 193 7.0 13.0 0.00 0.00 0.00 9 1014.7
20260905193533 93 93 2.0 14.0 0.00 0.00 0.00 10 1014.8
20260905192603 92 96 7.0 16.0 0.00 0.00 0.00 11 1014.9
20260905192033 91 137 4.0 15.0 0.00 0.00 0.00 12 1014.8
20260905191603 91 123 5.0 15.0 0.00 0.00 0.00 12 1015.0
20260905191033 90 114 4.0 12.0 0.00 0.00 0.00 12 1015.2
20260905190603 92 84 9.0 10.0 0.00 0.00 0.00 12 1015.3
20260905185603 90 106 7.0 11.0 0.00 0.00 0.00 13 1015.4
20260905185103 90 120 4.0 14.0 0.00 0.00 0.00 14 1015.5
20260905184103 90 101 10.0 15.0 0.00 0.00 0.00 13 1015.5
20260905183603 90 122 3.0 15.0 0.00 0.00 0.00 14 1015.6
20260905183103 89 107 1.0 9.0 0.00 0.00 0.00 15 1015.5
20260905182032 89 126 4.0 11.0 0.00 0.00 0.00 15 1015.5
20260905181603 89 105 3.0 10.0 0.00 0.00 0.00 15 1015.5
20260905180603 88 144 2.0 12.0 0.00 0.00 0.00 15 1015.5
20260905180103 88 147 3.0 10.0 0.00 0.00 0.00 16 1015.5
20260905175532 87 175 4.0 9.0 0.00 0.00 0.00 17 1015.7
20260905175033 87 109 3.0 9.0 0.00 0.00 0.00 16 1015.6
20260905174532 87 84 6.0 9.0 0.00 0.00 0.00 16 1015.8
20260905174103 86 223 2.0 8.0 0.00 0.00 0.00 17 1015.7
20260905173602 86 194 1.0 10.0 0.00 0.00 0.00 18 1015.6
20260905173103 85 226 4.0 10.0 0.00 0.00 0.00 17 1015.5
20260905172602 85 204 5.0 10.0 0.00 0.00 0.00 18 1015.6
20260905172033 85 213 5.0 10.0 0.00 0.00 0.00 18 1015.6
20260905171603 85 224 9.0 12.0 0.00 0.00 0.00 19 1015.7
20260905171103 84 212 10.0 15.0 0.00 0.00 0.00 19 1015.5
20260905165533 84 228 7.0 10.0 0.00 0.00 0.00 20 1015.6
20260905165033 84 238 6.0 10.0 0.00 0.00 0.00 21 1015.6
20260905164532 83 207 7.0 10.0 0.00 0.00 0.00 20 1015.3
20260905164032 83 193 7.0 10.0 0.00 0.00 0.00 22 1015.4
20260905163102 82 215 5.0 10.0 0.00 0.00 0.00 22 1015.3
20260905162603 82 202 7.0 10.0 0.00 0.00 0.00 23 1015.3
20260905161602 81 360 6.0 10.0 0.00 0.00 0.00 24 1015.1
20260905160602 80 360 10.0 11.0 0.00 0.00 0.00 24 1015.1
20260905155532 80 360 5.0 9.0 0.00 0.00 0.00 24 1015.3
20260905155103 80 254 5.0 8.0 0.00 0.00 0.00 25 1015.3
20260905154602 79 236 5.0 8.0 0.00 0.00 0.00 25 1015.4
20260905154102 79 229 4.0 9.0 0.00 0.00 0.00 25 1015.4
20260905153602 79 229 6.0 9.0 0.00 0.00 0.00 26 1015.6
20260905153102 79 360 3.0 8.0 0.00 0.00 0.00 25 1015.5
20260905152602 78 360 6.0 8.0 0.00 0.00 0.00 26 1015.2
20260905152102 78 360 8.0 8.0 0.00 0.00 0.00 26 1015.2
20260905151603 78 360 2.0 7.0 0.00 0.00 0.00 27 1015.2
20260905151033 77 360 6.0 7.0 0.00 0.00 0.00 27 1015.2
20260905150602 77 75 4.0 7.0 0.00 0.00 0.00 27 1015.1
20260905145603 77 360 5.0 8.0 0.00 0.00 0.00 27 1015.2
20260905145103 76 360 5.0 8.0 0.00 0.00 0.00 27 1015.0
20260905144603 76 94 3.0 9.0 0.00 0.00 0.00 28 1015.0
20260905144102 76 83 5.0 9.0 0.00 0.00 0.00 28 1015.0
20260905143602 76 101 5.0 7.0 0.00 0.00 0.00 28 1014.9
20260905143032 76 360 6.0 7.0 0.00 0.00 0.00 28 1014.9
20260905141103 74 90 6.0 7.0 0.00 0.00 0.00 29 1014.5
20260905140602 74 97 5.0 7.0 0.00 0.00 0.00 30 1014.6
20260905135102 72 81 5.0 8.0 0.00 0.00 0.00 30 1014.4
20260905134603 72 83 5.0 8.0 0.00 0.00 0.00 31 1014.4
20260905134102 71 78 4.0 7.0 0.00 0.00 0.00 31 1014.2
20260905133533 71 72 4.0 7.0 0.00 0.00 0.00 32 1014.0
20260905133032 71 78 4.0 7.0 0.00 0.00 0.00 32 1014.0
20260905132102 71 78 4.0 7.0 0.00 0.00 0.00 32 1013.7
20260905131602 71 94 3.0 5.0 0.00 0.00 0.00 32 1013.7
20260905131102 71 96 3.0 3.0 0.00 0.00 0.00 32 1013.6
20260905130602 71 96 0.0 3.0 0.00 0.00 0.00 31 1013.6
20260905125602 71 96 1.0 5.0 0.00 0.00 0.00 31 1013.8
20260905125032 71 96 2.0 5.0 0.00 0.00 0.00 31 1013.8
20260905124602 72 96 2.0 5.0 0.00 0.00 0.00 31 1013.8
20260905124102 72 97 3.0 3.0 0.00 0.00 0.00 31 1013.7
20260905123602 72 97 1.0 3.0 0.00 0.00 0.00 30 1013.7
20260905123102 72 97 1.0 3.0 0.00 0.00 0.00 31 1013.6
20260905122602 72 97 0.0 5.0 0.00 0.00 0.00 30 1013.7
20260905122032 72 97 1.0 5.0 0.00 0.00 0.00 30 1013.6
20260905121532 73 96 0.0 3.0 0.00 0.00 0.00 30 1013.7
20260905121032 73 96 0.0 3.0 0.00 0.00 0.00 30 1013.7
20260905120532 73 101 0.0 2.0 0.00 0.00 0.00 30 1013.7
20260905115532 74 101 1.0 6.0 0.00 0.00 0.00 29 1013.9
20260905115102 74 101 1.0 6.0 0.00 0.00 0.00 28 1013.7
20260905114602 74 105 0.0 2.0 0.00 0.00 0.00 28 1013.8
20260905114032 74 105 1.0 2.0 0.00 0.00 0.00 28 1013.8
20260905113602 74 105 0.0 4.0 0.00 0.00 0.00 28 1013.7
20260905113102 74 105 1.0 4.0 0.00 0.00 0.00 27 1013.7
20260905112532 74 105 3.0 9.0 0.00 0.00 0.00 27 1013.7
20260905111602 75 82 5.0 7.0 0.00 0.00 0.00 27 1013.8
20260905111102 75 80 3.0 7.0 0.00 0.00 0.00 27 1013.8
20260905110602 75 79 6.0 7.0 0.00 0.00 0.00 27 1013.8
20260905105102 75 66 3.0 7.0 0.00 0.00 0.00 26 1013.8
20260905104602 75 73 7.0 7.0 0.00 0.00 0.00 25 1013.8
20260905103532 76 62 1.0 7.0 0.00 0.00 0.00 26 1013.7
20260905102532 76 111 3.0 8.0 0.00 0.00 0.00 26 1013.6
20260905102102 75 95 6.0 7.0 0.00 0.00 0.00 26 1013.5
20260905101032 75 97 3.0 9.0 0.00 0.00 0.00 25 1013.6
20260905100532 75 78 3.0 6.0 0.00 0.00 0.00 25 1013.6
20260905095532 76 90 1.0 5.0 0.00 0.00 0.00 23 1013.6
20260905094532 76 85 2.0 6.0 0.00 0.00 0.00 23 1013.5
20260905094102 76 90 5.0 6.0 0.00 0.00 0.00 22 1013.6
20260905093602 76 76 4.0 8.0 0.00 0.00 0.00 22 1013.6
20260905093102 76 54 4.0 8.0 0.00 0.00 0.00 22 1013.5
20260905092532 76 63 5.0 7.0 0.00 0.00 0.00 21 1013.3
20260905092102 77 77 4.0 7.0 0.00 0.00 0.00 21 1013.5
20260905091602 77 80 3.0 7.0 0.00 0.00 0.00 20 1013.5
20260905091102 77 65 4.0 8.0 0.00 0.00 0.00 20 1013.5
20260905085532 77 69 4.0 9.0 0.00 0.00 0.00 19 1013.4
20260905085102 77 76 2.0 7.0 0.00 0.00 0.00 19 1013.3
20260905084602 77 107 4.0 7.0 0.00 0.00 0.00 19 1013.4
20260905084102 77 79 3.0 8.0 0.00 0.00 0.00 19 1013.3
20260905083532 77 83 3.0 8.0 0.00 0.00 0.00 18 1013.2
20260905083032 77 82 3.0 8.0 0.00 0.00 0.00 19 1013.3
20260905082532 77 74 5.0 7.0 0.00 0.00 0.00 19 1013.3
20260905081602 78 121 3.0 3.0 0.00 0.00 0.00 20 1013.5
20260905080602 78 121 2.0 4.0 0.00 0.00 0.00 19 1013.5
20260905075602 78 124 2.0 3.0 0.00 0.00 0.00 19 1013.2
20260905075102 78 125 2.0 3.0 0.00 0.00 0.00 19 1013.1
20260905074602 79 125 2.0 3.0 0.00 0.00 0.00 19 1013.2
20260905074032 79 125 2.0 2.0 0.00 0.00 0.00 19 1013.2
20260905073532 79 125 1.0 3.0 0.00 0.00 0.00 19 1013.3
20260905072602 79 125 0.0 4.0 0.00 0.00 0.00 19 1013.2
20260905072032 79 126 0.0 4.0 0.00 0.00 0.00 19 1013.1
20260905071532 79 126 2.0 4.0 0.00 0.00 0.00 19 1013.0
20260905071032 79 125 0.0 7.0 0.00 0.00 0.00 19 1013.0
20260905065602 79 96 0.0 6.0 0.00 0.00 0.00 20 1012.7
20260905064102 79 110 2.0 4.0 0.00 0.00 0.00 19 1012.4
20260905063601 79 110 2.0 4.0 0.00 0.00 0.00 19 1012.3
20260905062602 80 163 1.0 3.0 0.00 0.00 0.00 20 1012.5
20260905062102 80 165 2.0 2.0 0.00 0.00 0.00 20 1012.3
20260905061102 80 165 0.0 4.0 0.00 0.00 0.00 19 1012.3
20260905055602 81 180 1.0 2.0 0.00 0.00 0.00 19 1011.9
20260905055102 81 180 1.0 3.0 0.00 0.00 0.00 19 1012.1
20260905054102 82 180 0.0 3.0 0.00 0.00 0.00 18 1012.2
20260905053602 82 180 1.0 2.0 0.00 0.00 0.00 19 1012.0
20260905053102 82 180 0.0 2.0 0.00 0.00 0.00 18 1012.1
20260905052601 82 180 0.0 3.0 0.00 0.00 0.00 18 1012.2
20260905052102 82 180 1.0 3.0 0.00 0.00 0.00 18 1012.0
20260905051602 82 180 2.0 3.0 0.00 0.00 0.00 18 1012.1
20260905050602 82 180 0.0 4.0 0.00 0.00 0.00 18 1012.0
20260905045601 83 181 1.0 3.0 0.00 0.00 0.00 17 1011.8
20260905044602 83 181 0.0 2.0 0.00 0.00 0.00 18 1011.8
20260905044102 83 181 1.0 2.0 0.00 0.00 0.00 18 1011.7
20260905043101 84 182 1.0 2.0 0.00 0.00 0.00 18 1011.6